VIV3191 MMMY-MMGL

Flight info

Callsign VIV3191
Flight time N/A
Altitude 34000
Route KERGA1A KERGA UT44 MEZCA MEZCA1B
Aircraft A321/M-SDE3FGHIRWY/LB1

Departure

Time 2026-04-23 02:40
Airport Monterrey International Airport (MMMY)

Arrival

Time N/A
Airport Guadalajara International Airport (MMGL)
Time Latitude Longitude Altitude Speed Heading
2026-04-23 02:22 25.77828 -100.11233 1292 ft 0 kts 211°
2026-04-23 02:31 25.77832 -100.11230 1292 ft 2 kts 214°
2026-04-23 02:32 25.77847 -100.11217 1292 ft 3 kts 234°
2026-04-23 02:32 25.77856 -100.11198 1292 ft 3 kts 253°
2026-04-23 02:32 25.77861 -100.11176 1292 ft 3 kts 268°
2026-04-23 02:32 25.77860 -100.11154 1292 ft 3 kts 277°
2026-04-23 02:33 25.77857 -100.11132 1292 ft 3 kts 284°
2026-04-23 02:33 25.77851 -100.11110 1292 ft 3 kts 289°
2026-04-23 02:33 25.77844 -100.11089 1292 ft 3 kts 294°
2026-04-23 02:33 25.77835 -100.11069 1292 ft 3 kts 297°
2026-04-23 02:34 25.77826 -100.11049 1292 ft 3 kts 300°
2026-04-23 02:34 25.77818 -100.11034 1292 ft 1 kts 301°
2026-04-23 02:36 25.77820 -100.11038 1292 ft 2 kts 301°
2026-04-23 02:36 25.77842 -100.11078 1292 ft 9 kts 301°
2026-04-23 02:36 25.77880 -100.11148 1292 ft 12 kts 302°
2026-04-23 02:36 25.77930 -100.11236 1292 ft 15 kts 302°
2026-04-23 02:37 25.77989 -100.11344 1292 ft 18 kts 301°
2026-04-23 02:37 25.78056 -100.11467 1292 ft 16 kts 301°
2026-04-23 02:37 25.78106 -100.11557 1292 ft 14 kts 301°
2026-04-23 02:37 25.78162 -100.11660 1292 ft 17 kts 301°
2026-04-23 02:38 25.78222 -100.11770 1292 ft 7 kts 302°
2026-04-23 02:38 25.78258 -100.11808 1292 ft 8 kts 360°
2026-04-23 02:38 25.78318 -100.11776 1292 ft 11 kts 30°
2026-04-23 02:38 25.78393 -100.11728 1292 ft 14 kts 30°
2026-04-23 02:39 25.78402 -100.11694 1292 ft 5 kts 118°
2026-04-23 02:39 25.78352 -100.11593 1293 ft 41 kts 121°
2026-04-23 02:39 25.78053 -100.11050 1293 ft 123 kts 123°
2026-04-23 02:39 25.77480 -100.10017 1303 ft 185 kts 122°
2026-04-23 02:40 25.76783 -100.08845 2132 ft 184 kts 123°
2026-04-23 02:40 25.76047 -100.07584 2769 ft 206 kts 122°
2026-04-23 02:40 25.75277 -100.06220 3370 ft 210 kts 122°
2026-04-23 02:40 25.74502 -100.04842 4002 ft 210 kts 122°
2026-04-23 02:41 25.73737 -100.03474 4638 ft 211 kts 121°
2026-04-23 02:41 25.73008 -100.01996 5038 ft 225 kts 117°
2026-04-23 02:41 25.72216 -100.00411 5355 ft 246 kts 119°
2026-04-23 02:41 25.71267 -99.98755 5727 ft 263 kts 127°
2026-04-23 02:42 25.69856 -99.97395 6153 ft 278 kts 153°
2026-04-23 02:42 25.67974 -99.96882 6748 ft 281 kts 181°
2026-04-23 02:42 25.66029 -99.96987 7528 ft 280 kts 188°
2026-04-23 02:42 25.64089 -99.97175 8336 ft 280 kts 188°
2026-04-23 02:43 25.62132 -99.97319 9071 ft 283 kts 187°
2026-04-23 02:43 25.60175 -99.97408 9759 ft 286 kts 186°
2026-04-23 02:43 25.58170 -99.97481 10410 ft 291 kts 186°
2026-04-23 02:43 25.56095 -99.97568 10816 ft 305 kts 186°
2026-04-23 02:44 25.53906 -99.97673 11038 ft 325 kts 186°
2026-04-23 02:44 25.51577 -99.97787 11246 ft 343 kts 186°
2026-04-23 02:44 25.49128 -99.97903 11450 ft 361 kts 186°
2026-04-23 02:44 25.46557 -99.98024 11650 ft 377 kts 185°
2026-04-23 02:45 25.43921 -99.98147 11838 ft 392 kts 185°
2026-04-23 02:45 25.41151 -99.98273 12136 ft 401 kts 185°
2026-04-23 02:45 25.38354 -99.98398 12659 ft 404 kts 185°
2026-04-23 02:45 25.35526 -99.98528 13181 ft 407 kts 185°
2026-04-23 02:46 25.32680 -99.98663 13690 ft 410 kts 185°
2026-04-23 02:46 25.29816 -99.98798 14188 ft 413 kts 185°
2026-04-23 02:46 25.26929 -99.98932 14677 ft 416 kts 185°
2026-04-23 02:46 25.24025 -99.99070 15158 ft 419 kts 185°
2026-04-23 02:47 25.21132 -99.99206 15624 ft 422 kts 185°
2026-04-23 02:47 25.18184 -99.99345 16086 ft 425 kts 185°
2026-04-23 02:47 25.15182 -99.99488 16540 ft 428 kts 185°
2026-04-23 02:47 25.12235 -99.99625 16972 ft 430 kts 185°
2026-04-23 02:48 25.09240 -99.99764 17399 ft 433 kts 185°
2026-04-23 02:48 25.06205 -99.99907 17819 ft 436 kts 185°
2026-04-23 02:48 25.03164 -100.00053 18229 ft 438 kts 185°
2026-04-23 02:48 25.00108 -100.00199 18629 ft 441 kts 185°
2026-04-23 02:49 24.97031 -100.00390 19015 ft 442 kts 189°
2026-04-23 02:49 24.94032 -100.01050 19385 ft 440 kts 200°
2026-04-23 02:49 24.91240 -100.02395 19755 ft 438 kts 212°
2026-04-23 02:49 24.88648 -100.04094 20117 ft 439 kts 214°
2026-04-23 02:50 24.86059 -100.05897 20469 ft 441 kts 215°
2026-04-23 02:50 24.83449 -100.07704 20816 ft 444 kts 214°
2026-04-23 02:50 24.80797 -100.09471 21157 ft 446 kts 213°
2026-04-23 02:50 24.78102 -100.11201 21487 ft 449 kts 212°
2026-04-23 02:51 24.75386 -100.12923 21819 ft 451 kts 212°
2026-04-23 02:51 24.72665 -100.14667 22143 ft 453 kts 213°
2026-04-23 02:51 24.69974 -100.16423 22454 ft 455 kts 213°
2026-04-23 02:51 24.67246 -100.18220 22760 ft 457 kts 213°
2026-04-23 02:52 24.64510 -100.20016 23053 ft 459 kts 213°
2026-04-23 02:52 24.61744 -100.21816 23344 ft 461 kts 213°
2026-04-23 02:52 24.58971 -100.23614 23622 ft 463 kts 213°
2026-04-23 02:52 24.56185 -100.25420 23892 ft 465 kts 213°
2026-04-23 02:53 24.53390 -100.27230 24146 ft 467 kts 213°
2026-04-23 02:53 24.50580 -100.29050 24394 ft 469 kts 213°
2026-04-23 02:53 24.48721 -100.30256 24551 ft 470 kts 213°
2026-04-23 02:53 24.44973 -100.32688 24888 ft 471 kts 213°
2026-04-23 02:54 24.42152 -100.34515 25199 ft 471 kts 213°
2026-04-23 02:54 24.39333 -100.36339 25507 ft 470 kts 213°
2026-04-23 02:54 24.36515 -100.38165 25815 ft 470 kts 213°
2026-04-23 02:54 24.34648 -100.39375 26022 ft 469 kts 213°
2026-04-23 02:55 24.31837 -100.41192 26330 ft 469 kts 213°
2026-04-23 02:55 24.28110 -100.43597 26735 ft 468 kts 213°